Location: Moscow Pond
(43.6842°N, 73.2366°W)
Time: 01:45:38
(UTC+00:00)

Cosmos 1725 Rocket - Pass Details

Date: 08 November 2025
Orbit: 962 x 989 km, 82.9° (Epoch: 04 December)

Event Time Altitude Azimuth Distance (km) Brightness Sun altitude
Rises 10:10:24 0° 349° (NNW) 3,711 6.8 -16.1°
Reaches altitude 10° 10:12:57 10° 346° (NNW) 2,759 6.1 -15.7°
Maximum altitude 10:19:11 63° 267° (W) 1,095 4.0 -14.6°
Drops below altitude 10° 10:25:22 10° 188° (S) 2,735 6.4 -13.5°
Sets 10:27:53 0° 185° (S) 3,677 7.1 -13.0°
